User: anonymous   Login
Location: Columbia
(38.9520°N, 92.3340°W)
Time: 09:33:36
(UTC-06:00)
Language:

Iridium 52 - Orbit

View from above orbital plane
View from above orbital plane
View from above satellite
View from above satellite

Ground track
Ground track

The orbit data is extracted from the following two-line orbital elements,

1 25169U 98010A   14355.55847456  .00000464  00000-0  15873-3 0  8117
2 25169 086.3954 010.1647 0002167 107.8985 003.8179 14.34218851881544
Epoch (UTC): 21 December 2014 13:24:12
Eccentricity: 0.0002167
inclination: 86.3954°
perigee height: 776 km
apogee height: 779 km
right ascension of ascending node: 10.1647°
argument of perigee: 107.8985°
revolutions per day: 14.34218851
mean anomaly at epoch: 3.8179°
orbit number at epoch: 88154

The dashed part of the orbit path shows where the satellite is in the earth's shadow,  

DLR